Time,TemperatureF,DewpointF,PressureIn,WindDirection,WindDirectionDegrees,WindSpeedMPH,WindSpeedGustMPH,Humidity,HourlyPrecipIn,Conditions,Clouds,dailyrainin,SoftwareType,DateUTC
2013-05-01 00:04:00,68.9,28.5,29.85,North,8,0.0,2.0,22,0.00,,,0.00,WeatherCatV1.14B232,2013-05-01 07:04:00,
2013-05-01 00:09:00,69.1,27.5,29.85,SW,214,1.0,3.0,21,0.00,,,0.00,WeatherCatV1.14B232,2013-05-01 07:09:00,
2013-05-01 00:14:00,69.2,27.6,29.85,SSE,167,2.0,2.0,21,0.00,,,0.00,WeatherCatV1.14B232,2013-05-01 07:14:00,
2013-05-01 00:19:00,69.2,26.4,29.85,SW,223,0.0,2.0,20,0.00,,,0.00,WeatherCatV1.14B232,2013-05-01 07:19:00,
2013-05-01 00:24:00,69.0,27.4,29.85,WSW,240,2.0,2.0,21,0.00,,,0.00,WeatherCatV1.14B232,2013-05-01 07:24:00,
2013-05-01 00:29:00,69.2,27.6,29.85,SW,226,1.0,4.0,21,0.00,,,0.00,WeatherCatV1.14B232,2013-05-01 07:29:00,
2013-05-01 00:34:00,69.1,27.5,29.85,WSW,254,3.0,3.0,21,0.00,,,0.00,WeatherCatV1.14B232,2013-05-01 07:34:00,
2013-05-01 00:39:00,69.3,25.3,29.85,WSW,249,4.0,4.0,19,0.00,,,0.00,WeatherCatV1.14B232,2013-05-01 07:39:00,
2013-05-01 00:44:00,69.7,26.8,29.85,SW,222,1.0,1.0,20,0.00,,,0.00,WeatherCatV1.14B232,2013-05-01 07:44:00,
2013-05-01 00:49:00,69.6,25.5,29.85,West,279,1.0,4.0,19,0.00,,,0.00,WeatherCatV1.14B232,2013-05-01 07:49:00,
2013-05-01 00:54:00,69.9,28.2,29.85,SSW,208,1.0,2.0,21,0.00,,,0.00,WeatherCatV1.14B232,2013-05-01 07:54:00,
2013-05-01 00:59:00,69.9,27.0,29.85,NNW,338,1.0,5.0,20,0.00,,,0.00,WeatherCatV1.14B232,2013-05-01 07:59:00,
2013-05-01 01:04:00,69.7,30.2,29.85,SW,215,1.0,3.0,23,0.00,,,0.00,WeatherCatV1.14B232,2013-05-01 08:04:00,
2013-05-01 01:09:00,69.1,31.8,29.85,SW,222,2.0,3.0,25,0.00,,,0.00,WeatherCatV1.14B232,2013-05-01 08:09:00,
2013-05-01 01:12:00,69.0,28.6,29.85,WSW,248,2.0,6.0,22,0.00,,,0.00,WeatherCatV1.14B232,2013-05-01 08:12:00,
2013-05-01 01:17:00,69.3,32.9,29.85,SW,214,4.0,4.0,26,0.00,,,0.00,WeatherCatV1.14B232,2013-05-01 08:17:00,
2013-05-01 01:22:00,69.1,31.8,29.84,SSW,204,0.0,2.0,25,0.00,,,0.00,WeatherCatV1.14B232,2013-05-01 08:22:00,
2013-05-01 01:27:00,68.9,30.6,29.85,WNW,301,2.0,3.0,24,0.00,,,0.00,WeatherCatV1.14B232,2013-05-01 08:27:00,
2013-05-01 01:32:00,69.1,30.8,29.85,SW,228,2.0,4.0,24,0.00,,,0.00,WeatherCatV1.14B232,2013-05-01 08:32:00,
2013-05-01 01:37:00,69.2,28.7,29.85,WNW,297,3.0,5.0,22,0.00,,,0.00,WeatherCatV1.14B232,2013-05-01 08:37:00,
2013-05-01 01:42:00,69.4,31.0,29.85,SSW,204,4.0,5.0,24,0.00,,,0.00,WeatherCatV1.14B232,2013-05-01 08:42:00,
2013-05-01 01:47:00,69.8,30.3,29.85,WNW,291,2.0,8.0,23,0.00,,,0.00,WeatherCatV1.14B232,2013-05-01 08:47:00,
2013-05-01 01:52:00,69.8,29.2,29.85,WSW,254,2.0,7.0,22,0.00,,,0.00,WeatherCatV1.14B232,2013-05-01 08:52:00,
2013-05-01 01:57:00,69.6,32.2,29.85,WSW,246,2.0,6.0,25,0.00,,,0.00,WeatherCatV1.14B232,2013-05-01 08:57:00,
2013-05-01 02:02:00,69.5,29.0,29.84,WSW,243,4.0,5.0,22,0.00,,,0.00,WeatherCatV1.14B232,2013-05-01 09:02:00,
2013-05-01 02:07:00,69.6,29.1,29.85,SW,235,2.0,7.0,22,0.00,,,0.00,WeatherCatV1.14B232,2013-05-01 09:07:00,
2013-05-01 02:12:00,69.5,31.1,29.85,West,263,2.0,5.0,24,0.00,,,0.00,WeatherCatV1.14B232,2013-05-01 09:12:00,
2013-05-01 02:17:00,69.3,32.0,29.85,WSW,253,2.0,5.0,25,0.00,,,0.00,WeatherCatV1.14B232,2013-05-01 09:17:00,
2013-05-01 02:22:00,69.2,29.8,29.85,West,281,1.0,5.0,23,0.00,,,0.00,WeatherCatV1.14B232,2013-05-01 09:22:00,
2013-05-01 02:27:00,69.0,31.7,29.85,WSW,252,2.0,3.0,25,0.00,,,0.00,WeatherCatV1.14B232,2013-05-01 09:27:00,
2013-05-01 02:32:00,68.5,30.3,29.84,West,273,5.0,9.0,24,0.00,,,0.00,WeatherCatV1.14B232,2013-05-01 09:32:00,
2013-05-01 02:37:00,68.7,30.4,29.84,WNW,303,3.0,5.0,24,0.00,,,0.00,WeatherCatV1.14B232,2013-05-01 09:37:00,
2013-05-01 02:42:00,68.6,31.4,29.84,West,264,3.0,7.0,25,0.00,,,0.00,WeatherCatV1.14B232,2013-05-01 09:42:00,
2013-05-01 02:47:00,68.4,32.2,29.85,West,264,3.0,4.0,26,0.00,,,0.00,WeatherCatV1.14B232,2013-05-01 09:47:00,
2013-05-01 02:52:00,68.2,30.0,29.85,SW,217,2.0,6.0,24,0.00,,,0.00,WeatherCatV1.14B232,2013-05-01 09:52:00,
2013-05-01 02:57:00,68.3,31.1,29.85,West,262,1.0,8.0,25,0.00,,,0.00,WeatherCatV1.14B232,2013-05-01 09:57:00,
2013-05-01 03:02:00,68.4,34.0,29.85,WNW,296,2.0,5.0,28,0.00,,,0.00,WeatherCatV1.14B232,2013-05-01 10:02:00,
2013-05-01 03:07:00,68.2,34.7,29.85,North,356,1.0,6.0,29,0.00,,,0.00,WeatherCatV1.14B232,2013-05-01 10:07:00,
2013-05-01 03:12:00,67.9,33.6,29.85,SW,217,3.0,6.0,28,0.00,,,0.00,WeatherCatV1.14B232,2013-05-01 10:12:00,
2013-05-01 03:17:00,67.6,34.2,29.86,West,264,2.0,3.0,29,0.00,,,0.00,WeatherCatV1.14B232,2013-05-01 10:17:00,
2013-05-01 03:22:00,67.3,34.8,29.86,West,271,3.0,6.0,30,0.00,,,0.00,WeatherCatV1.14B232,2013-05-01 10:22:00,
2013-05-01 03:27:00,67.5,32.3,29.85,West,278,1.0,3.0,27,0.00,,,0.00,WeatherCatV1.14B232,2013-05-01 10:27:00,
2013-05-01 03:32:00,67.5,31.4,29.85,West,274,1.0,3.0,26,0.00,,,0.00,WeatherCatV1.14B232,2013-05-01 10:32:00,
2013-05-01 03:37:00,67.2,35.5,29.85,West,281,3.0,4.0,31,0.00,,,0.00,WeatherCatV1.14B232,2013-05-01 10:37:00,
2013-05-01 03:42:00,66.9,33.6,29.85,West,270,3.0,4.0,29,0.00,,,0.00,WeatherCatV1.14B232,2013-05-01 10:42:00,
2013-05-01 03:47:00,66.7,33.4,29.85,WSW,246,5.0,5.0,29,0.00,,,0.00,WeatherCatV1.14B232,2013-05-01 10:47:00,
2013-05-01 03:52:00,66.9,31.8,29.85,West,278,2.0,5.0,27,0.00,,,0.00,WeatherCatV1.14B232,2013-05-01 10:52:00,
2013-05-01 03:57:00,67.0,33.7,29.85,West,264,3.0,7.0,29,0.00,,,0.00,WeatherCatV1.14B232,2013-05-01 10:57:00,
2013-05-01 04:02:00,66.9,31.8,29.86,NW,316,3.0,8.0,27,0.00,,,0.00,WeatherCatV1.14B232,2013-05-01 11:02:00,
2013-05-01 04:07:00,66.8,33.5,29.86,WNW,291,3.0,4.0,29,0.00,,,0.00,WeatherCatV1.14B232,2013-05-01 11:07:00,
2013-05-01 04:12:00,66.7,33.4,29.86,SW,226,1.0,4.0,29,0.00,,,0.00,WeatherCatV1.14B232,2013-05-01 11:12:00,
2013-05-01 04:17:00,66.4,33.2,29.86,WNW,290,2.0,6.0,29,0.00,,,0.00,WeatherCatV1.14B232,2013-05-01 11:17:00,
2013-05-01 04:22:00,66.5,33.3,29.86,WNW,301,3.0,4.0,29,0.00,,,0.00,WeatherCatV1.14B232,2013-05-01 11:22:00,
2013-05-01 04:27:00,66.7,32.6,29.86,NNW,329,1.0,3.0,28,0.00,,,0.00,WeatherCatV1.14B232,2013-05-01 11:27:00,
2013-05-01 04:32:00,66.4,31.4,29.87,West,266,2.0,4.0,27,0.00,,,0.00,WeatherCatV1.14B232,2013-05-01 11:32:00,
2013-05-01 04:37:00,66.1,32.0,29.87,SW,217,1.0,2.0,28,0.00,,,0.00,WeatherCatV1.14B232,2013-05-01 11:37:00,
2013-05-01 04:42:00,65.9,31.0,29.87,WNW,286,2.0,3.0,27,0.00,,,0.00,WeatherCatV1.14B232,2013-05-01 11:42:00,
2013-05-01 04:47:00,65.9,31.9,29.87,West,269,3.0,3.0,28,0.00,,,0.00,WeatherCatV1.14B232,2013-05-01 11:47:00,
2013-05-01 04:52:00,65.9,31.9,29.87,West,281,1.0,2.0,28,0.00,,,0.00,WeatherCatV1.14B232,2013-05-01 11:52:00,
2013-05-01 04:57:00,65.7,31.7,29.87,WNW,294,3.0,4.0,28,0.00,,,0.00,WeatherCatV1.14B232,2013-05-01 11:57:00,
2013-05-01 05:04:00,65.7,31.7,29.87,SW,222,1.0,1.0,28,0.00,,,0.00,WeatherCatV1.14B232,2013-05-01 12:04:00,
2013-05-01 05:09:00,65.6,31.6,29.87,WNW,300,1.0,2.0,28,0.00,,,0.00,WeatherCatV1.14B232,2013-05-01 12:09:00,
2013-05-01 05:14:00,65.6,30.7,29.87,West,281,1.0,4.0,27,0.00,,,0.00,WeatherCatV1.14B232,2013-05-01 12:14:00,
2013-05-01 05:19:00,65.6,30.7,29.87,West,280,2.0,6.0,27,0.00,,,0.00,WeatherCatV1.14B232,2013-05-01 12:19:00,
2013-05-01 05:24:00,65.9,29.1,29.87,NW,314,2.0,6.0,25,0.00,,,0.00,WeatherCatV1.14B232,2013-05-01 12:24:00,
2013-05-01 05:29:00,66.0,30.1,29.88,NNE,13,1.0,4.0,26,0.00,,,0.00,WeatherCatV1.14B232,2013-05-01 12:29:00,
2013-05-01 05:34:00,65.9,31.9,29.88,North,8,0.0,2.0,28,0.00,,,0.00,WeatherCatV1.14B232,2013-05-01 12:34:00,
2013-05-01 05:39:00,65.6,31.6,29.88,SSW,211,2.0,5.0,28,0.00,,,0.00,WeatherCatV1.14B232,2013-05-01 12:39:00,
2013-05-01 05:44:00,65.6,30.7,29.89,SW,215,2.0,3.0,27,0.00,,,0.00,WeatherCatV1.14B232,2013-05-01 12:44:00,
2013-05-01 05:49:00,65.6,30.7,29.89,WNW,297,2.0,3.0,27,0.00,,,0.00,WeatherCatV1.14B232,2013-05-01 12:49:00,
2013-05-01 05:54:00,65.6,29.8,29.89,West,278,1.0,2.0,26,0.00,,,0.00,WeatherCatV1.14B232,2013-05-01 12:54:00,
2013-05-01 05:59:00,65.5,31.5,29.89,WNW,284,1.0,4.0,28,0.00,,,0.00,WeatherCatV1.14B232,2013-05-01 12:59:00,
2013-05-01 06:04:00,65.6,28.8,29.89,South,186,1.0,5.0,25,0.00,,,0.00,WeatherCatV1.14B232,2013-05-01 13:04:00,
2013-05-01 06:09:00,65.6,29.8,29.90,NE,54,1.0,4.0,26,0.00,,,0.00,WeatherCatV1.14B232,2013-05-01 13:09:00,
2013-05-01 06:14:00,65.9,29.1,29.90,West,273,1.0,5.0,25,0.00,,,0.00,WeatherCatV1.14B232,2013-05-01 13:14:00,
2013-05-01 06:19:00,65.8,28.0,29.91,SSW,208,2.0,5.0,24,0.00,,,0.00,WeatherCatV1.14B232,2013-05-01 13:19:00,
2013-05-01 06:24:00,65.7,29.9,29.90,SSW,207,2.0,3.0,26,0.00,,,0.00,WeatherCatV1.14B232,2013-05-01 13:24:00,
2013-05-01 06:29:00,65.4,28.7,29.91,SW,229,2.0,5.0,25,0.00,,,0.00,WeatherCatV1.14B232,2013-05-01 13:29:00,
2013-05-01 06:34:00,65.3,33.9,29.91,NW,304,1.0,6.0,31,0.00,,,0.00,WeatherCatV1.14B232,2013-05-01 13:34:00,
2013-05-01 06:39:00,65.0,33.6,29.91,SSW,204,1.0,6.0,31,0.00,,,0.00,WeatherCatV1.14B232,2013-05-01 13:39:00,
2013-05-01 06:44:00,65.0,32.0,29.92,WSW,240,2.0,5.0,29,0.00,,,0.00,WeatherCatV1.14B232,2013-05-01 13:44:00,
2013-05-01 06:49:00,65.1,31.2,29.92,SW,228,2.0,3.0,28,0.00,,,0.00,WeatherCatV1.14B232,2013-05-01 13:49:00,
2013-05-01 06:54:00,65.1,31.2,29.92,SW,225,2.0,3.0,28,0.00,,,0.00,WeatherCatV1.14B232,2013-05-01 13:54:00,
2013-05-01 06:59:00,65.0,34.4,29.92,North,4,1.0,5.0,32,0.00,,,0.00,WeatherCatV1.14B232,2013-05-01 13:59:00,
2013-05-01 07:04:00,65.1,29.4,29.92,NNW,345,1.0,3.0,26,0.00,,,0.00,WeatherCatV1.14B232,2013-05-01 14:04:00,
2013-05-01 07:09:00,65.2,31.3,29.92,West,278,3.0,4.0,28,0.00,,,0.00,WeatherCatV1.14B232,2013-05-01 14:09:00,
2013-05-01 07:14:00,65.3,29.5,29.93,NNW,345,1.0,5.0,26,0.00,,,0.00,WeatherCatV1.14B232,2013-05-01 14:14:00,
2013-05-01 07:19:00,65.4,32.3,29.93,West,278,2.0,3.0,29,0.00,,,0.00,WeatherCatV1.14B232,2013-05-01 14:19:00,
2013-05-01 07:24:00,65.4,32.3,29.93,North,5,3.0,3.0,29,0.00,,,0.00,WeatherCatV1.14B232,2013-05-01 14:24:00,
2013-05-01 07:29:00,65.5,34.1,29.93,WSW,249,2.0,3.0,31,0.00,,,0.00,WeatherCatV1.14B232,2013-05-01 14:29:00,
2013-05-01 07:34:00,65.4,33.2,29.93,SW,219,2.0,4.0,30,0.00,,,0.00,WeatherCatV1.14B232,2013-05-01 14:34:00,
2013-05-01 07:39:00,65.5,31.5,29.94,West,277,5.0,5.0,28,0.00,,,0.00,WeatherCatV1.14B232,2013-05-01 14:39:00,
2013-05-01 07:44:00,65.8,30.9,29.94,WSW,256,2.0,3.0,27,0.00,,,0.00,WeatherCatV1.14B232,2013-05-01 14:44:00,
2013-05-01 07:49:00,65.8,32.7,29.94,West,281,1.0,3.0,29,0.00,,,0.00,WeatherCatV1.14B232,2013-05-01 14:49:00,
2013-05-01 07:54:00,66.0,32.8,29.95,SW,221,1.0,3.0,29,0.00,,,0.00,WeatherCatV1.14B232,2013-05-01 14:54:00,
2013-05-01 07:59:00,66.1,31.1,29.95,West,278,1.0,3.0,27,0.00,,,0.00,WeatherCatV1.14B232,2013-05-01 14:59:00,
2013-05-01 08:04:00,66.3,29.4,29.95,WNW,283,2.0,4.0,25,0.00,,,0.00,WeatherCatV1.14B232,2013-05-01 15:04:00,
2013-05-01 08:09:00,66.5,29.6,29.95,WNW,288,2.0,4.0,25,0.00,,,0.00,WeatherCatV1.14B232,2013-05-01 15:09:00,
2013-05-01 08:14:00,66.6,29.7,29.95,West,266,1.0,5.0,25,0.00,,,0.00,WeatherCatV1.14B232,2013-05-01 15:14:00,
2013-05-01 08:19:00,66.8,30.8,29.96,West,274,2.0,4.0,26,0.00,,,0.00,WeatherCatV1.14B232,2013-05-01 15:19:00,
2013-05-01 08:24:00,67.1,31.1,29.96,NW,310,2.0,3.0,26,0.00,,,0.00,WeatherCatV1.14B232,2013-05-01 15:24:00,
2013-05-01 08:29:00,67.3,28.2,29.96,WSW,246,2.0,3.0,23,0.00,,,0.00,WeatherCatV1.14B232,2013-05-01 15:29:00,
2013-05-01 08:34:00,67.5,34.1,29.96,NNW,330,1.0,2.0,29,0.00,,,0.00,WeatherCatV1.14B232,2013-05-01 15:34:00,
2013-05-01 08:39:00,67.6,32.4,29.96,West,262,1.0,3.0,27,0.00,,,0.00,WeatherCatV1.14B232,2013-05-01 15:39:00,
2013-05-01 08:44:00,67.8,29.7,29.97,West,271,2.0,2.0,24,0.00,,,0.00,WeatherCatV1.14B232,2013-05-01 15:44:00,
2013-05-01 08:49:00,68.0,32.8,29.97,West,279,2.0,6.0,27,0.00,,,0.00,WeatherCatV1.14B232,2013-05-01 15:49:00,
2013-05-01 08:54:00,68.1,34.6,29.96,West,263,2.0,4.0,29,0.00,,,0.00,WeatherCatV1.14B232,2013-05-01 15:54:00,
2013-05-01 08:59:00,68.2,31.0,29.96,NW,321,2.0,3.0,25,0.00,,,0.00,WeatherCatV1.14B232,2013-05-01 15:59:00,
2013-05-01 09:04:00,68.4,33.1,29.97,West,276,2.0,5.0,27,0.00,,,0.00,WeatherCatV1.14B232,2013-05-01 16:04:00,
2013-05-01 09:09:00,68.7,32.4,29.97,WSW,240,0.0,3.0,26,0.00,,,0.00,WeatherCatV1.14B232,2013-05-01 16:09:00,
2013-05-01 09:14:00,68.8,35.2,29.97,West,274,1.0,3.0,29,0.00,,,0.00,WeatherCatV1.14B232,2013-05-01 16:14:00,
2013-05-01 09:19:00,69.0,35.4,29.97,West,273,1.0,4.0,29,0.00,,,0.00,WeatherCatV1.14B232,2013-05-01 16:19:00,
2013-05-01 09:24:00,69.4,34.9,29.98,NNW,346,1.0,3.0,28,0.00,,,0.00,WeatherCatV1.14B232,2013-05-01 16:24:00,
2013-05-01 09:29:00,69.6,33.2,29.98,West,260,2.0,4.0,26,0.00,,,0.00,WeatherCatV1.14B232,2013-05-01 16:29:00,
2013-05-01 09:34:00,69.9,34.4,29.98,WNW,287,1.0,3.0,27,0.00,,,0.00,WeatherCatV1.14B232,2013-05-01 16:34:00,
2013-05-01 09:39:00,70.0,37.1,29.99,SW,235,1.0,1.0,30,0.00,,,0.00,WeatherCatV1.14B232,2013-05-01 16:39:00,
2013-05-01 09:44:00,70.4,36.6,29.99,WSW,243,1.0,2.0,29,0.00,,,0.00,WeatherCatV1.14B232,2013-05-01 16:44:00,
2013-05-01 09:49:00,70.7,34.1,29.99,WSW,257,2.0,3.0,26,0.00,,,0.00,WeatherCatV1.14B232,2013-05-01 16:49:00,
2013-05-01 09:54:00,70.8,34.2,29.99,WSW,240,0.0,2.0,26,0.00,,,0.00,WeatherCatV1.14B232,2013-05-01 16:54:00,
2013-05-01 09:59:00,71.1,34.5,29.99,West,276,1.0,2.0,26,0.00,,,0.00,WeatherCatV1.14B232,2013-05-01 16:59:00,
2013-05-01 10:04:00,71.4,32.7,29.99,West,269,2.0,2.0,24,0.00,,,0.00,WeatherCatV1.14B232,2013-05-01 17:04:00,
2013-05-01 10:09:00,71.7,34.0,29.99,West,279,1.0,3.0,25,0.00,,,0.00,WeatherCatV1.14B232,2013-05-01 17:09:00,
2013-05-01 10:14:00,72.2,34.4,29.99,South,191,1.0,2.0,25,0.00,,,0.00,WeatherCatV1.14B232,2013-05-01 17:14:00,
2013-05-01 10:19:00,72.5,34.7,29.99,WNW,285,1.0,2.0,25,0.00,,,0.00,WeatherCatV1.14B232,2013-05-01 17:19:00,
2013-05-01 10:24:00,72.9,36.9,30.00,West,265,1.0,1.0,27,0.00,,,0.00,WeatherCatV1.14B232,2013-05-01 17:24:00,
2013-05-01 10:29:00,73.3,35.3,30.00,WNW,302,1.0,2.0,25,0.00,,,0.00,WeatherCatV1.14B232,2013-05-01 17:29:00,
2013-05-01 10:34:00,73.9,33.8,29.99,West,271,0.0,2.0,23,0.00,,,0.00,WeatherCatV1.14B232,2013-05-01 17:34:00,
2013-05-01 10:39:00,74.2,35.1,30.00,WNW,302,1.0,2.0,24,0.00,,,0.00,WeatherCatV1.14B232,2013-05-01 17:39:00,
2013-05-01 10:44:00,74.7,35.5,30.00,SSW,197,0.0,1.0,24,0.00,,,0.00,WeatherCatV1.14B232,2013-05-01 17:44:00,
2013-05-01 10:49:00,75.1,35.8,30.00,NNE,27,1.0,1.0,24,0.00,,,0.00,WeatherCatV1.14B232,2013-05-01 17:49:00,
2013-05-01 10:54:00,75.7,33.0,30.00,NE,39,0.0,1.0,21,0.00,,,0.00,WeatherCatV1.14B232,2013-05-01 17:54:00,
2013-05-01 10:59:00,76.1,33.3,30.00,SW,233,0.0,0.0,21,0.00,,,0.00,WeatherCatV1.14B232,2013-05-01 17:59:00,
2013-05-01 11:04:00,76.5,31.2,30.00,North,354,0.0,0.0,19,0.00,,,0.00,WeatherCatV1.14B232,2013-05-01 18:04:00,
2013-05-01 11:09:00,77.1,32.9,30.00,WSW,249,0.0,2.0,20,0.00,,,0.00,WeatherCatV1.14B232,2013-05-01 18:09:00,
2013-05-01 11:14:00,78.0,32.4,30.00,West,260,0.0,2.0,19,0.00,,,0.00,WeatherCatV1.14B232,2013-05-01 18:14:00,
2013-05-01 11:19:00,78.7,30.2,30.00,NW,315,0.0,0.0,17,0.00,,,0.00,WeatherCatV1.14B232,2013-05-01 18:19:00,
2013-05-01 11:24:00,79.2,33.4,30.01,NE,37,0.0,1.0,19,0.00,,,0.00,WeatherCatV1.14B232,2013-05-01 18:24:00,
2013-05-01 11:29:00,79.9,29.7,30.01,ENE,70,0.0,0.0,16,0.00,,,0.00,WeatherCatV1.14B232,2013-05-01 18:29:00,
2013-05-01 11:34:00,80.3,31.5,30.01,SW,226,0.0,2.0,17,0.00,,,0.00,WeatherCatV1.14B232,2013-05-01 18:34:00,
2013-05-01 11:39:00,80.5,28.6,30.01,South,169,0.0,0.0,15,0.00,,,0.00,WeatherCatV1.14B232,2013-05-01 18:39:00,
2013-05-01 11:44:00,80.6,28.7,30.01,NE,44,0.0,1.0,15,0.00,,,0.00,WeatherCatV1.14B232,2013-05-01 18:44:00,
2013-05-01 11:49:00,80.8,31.9,30.01,WSW,257,0.0,3.0,17,0.00,,,0.00,WeatherCatV1.14B232,2013-05-01 18:49:00,
2013-05-01 11:54:00,81.1,29.1,30.01,NE,48,1.0,2.0,15,0.00,,,0.00,WeatherCatV1.14B232,2013-05-01 18:54:00,
2013-05-01 11:59:00,81.1,29.1,30.01,NE,46,1.0,2.0,15,0.00,,,0.00,WeatherCatV1.14B232,2013-05-01 18:59:00,
2013-05-01 12:04:00,81.9,34.2,30.01,NE,37,0.0,1.0,18,0.00,,,0.00,WeatherCatV1.14B232,2013-05-01 19:04:00,
2013-05-01 12:09:00,82.5,31.8,30.01,SSE,156,0.0,3.0,16,0.00,,,0.00,WeatherCatV1.14B232,2013-05-01 19:09:00,
2013-05-01 12:14:00,82.8,28.7,30.01,NNE,24,0.0,2.0,14,0.00,,,0.00,WeatherCatV1.14B232,2013-05-01 19:14:00,
2013-05-01 12:28:00,83.3,30.8,30.00,ENE,77,1.0,1.0,15,0.00,,,0.00,WeatherCatV1.14B232,2013-05-01 19:28:00,
2013-05-01 12:33:00,83.0,32.2,30.01,NE,42,2.0,4.0,16,0.00,,,0.00,WeatherCatV1.14B232,2013-05-01 19:33:00,
2013-05-01 12:38:00,82.7,31.9,30.01,SSW,208,1.0,1.0,16,0.00,,,0.00,WeatherCatV1.14B232,2013-05-01 19:38:00,
2013-05-01 12:43:00,83.4,32.5,30.01,NE,53,1.0,3.0,16,0.00,,,0.00,WeatherCatV1.14B232,2013-05-01 19:43:00,
2013-05-01 12:48:00,83.6,34.2,30.01,NE,48,0.0,1.0,17,0.00,,,0.00,WeatherCatV1.14B232,2013-05-01 19:48:00,
2013-05-01 12:53:00,84.6,31.8,30.01,NE,38,1.0,1.0,15,0.00,,,0.00,WeatherCatV1.14B232,2013-05-01 19:53:00,
2013-05-01 12:58:00,85.1,35.4,30.01,SSW,192,0.0,0.0,17,0.00,,,0.00,WeatherCatV1.14B232,2013-05-01 19:58:00,
2013-05-01 13:03:00,85.9,36.0,30.01,WSW,242,0.0,1.0,17,0.00,,,0.00,WeatherCatV1.14B232,2013-05-01 20:03:00,
2013-05-01 13:08:00,86.1,40.3,30.01,ENE,75,1.0,1.0,20,0.00,,,0.00,WeatherCatV1.14B232,2013-05-01 20:08:00,
2013-05-01 13:13:00,84.9,49.1,30.02,SW,226,1.0,3.0,29,0.00,,,0.00,WeatherCatV1.14B232,2013-05-01 20:13:00,
2013-05-01 13:18:00,82.2,46.8,30.01,WSW,238,2.0,3.0,29,0.00,,,0.00,WeatherCatV1.14B232,2013-05-01 20:18:00,
2013-05-01 13:23:00,79.7,47.2,30.01,WSW,248,2.0,2.0,32,0.00,,,0.00,WeatherCatV1.14B232,2013-05-01 20:23:00,
2013-05-01 13:28:00,80.1,51.5,30.01,SW,229,4.0,4.0,37,0.00,,,0.00,WeatherCatV1.14B232,2013-05-01 20:28:00,
2013-05-01 13:33:00,78.7,53.0,30.01,SW,221,0.0,1.0,41,0.00,,,0.00,WeatherCatV1.14B232,2013-05-01 20:33:00,
2013-05-01 13:38:00,78.0,50.3,30.02,WSW,243,2.0,3.0,38,0.00,,,0.00,WeatherCatV1.14B232,2013-05-01 20:38:00,
2013-05-01 13:43:00,77.3,51.1,30.02,SW,222,3.0,6.0,40,0.00,,,0.00,WeatherCatV1.14B232,2013-05-01 20:43:00,
2013-05-01 13:48:00,75.5,50.8,30.02,WSW,242,3.0,6.0,42,0.00,,,0.00,WeatherCatV1.14B232,2013-05-01 20:48:00,
2013-05-01 13:53:00,74.6,50.6,30.02,WSW,246,4.0,6.0,43,0.00,,,0.00,WeatherCatV1.14B232,2013-05-01 20:53:00,
2013-05-01 13:58:00,74.4,50.4,30.02,SW,222,2.0,7.0,43,0.00,,,0.00,WeatherCatV1.14B232,2013-05-01 20:58:00,
2013-05-01 14:03:00,74.3,51.0,30.01,WSW,256,1.0,4.0,44,0.00,,,0.00,WeatherCatV1.14B232,2013-05-01 21:03:00,
2013-05-01 14:08:00,74.7,51.9,30.02,West,259,3.0,3.0,45,0.00,,,0.00,WeatherCatV1.14B232,2013-05-01 21:08:00,
2013-05-01 14:13:00,75.6,51.5,30.01,West,262,2.0,7.0,43,0.00,,,0.00,WeatherCatV1.14B232,2013-05-01 21:13:00,
2013-05-01 14:18:00,75.1,51.1,30.01,WSW,251,4.0,6.0,43,0.00,,,0.00,WeatherCatV1.14B232,2013-05-01 21:18:00,
2013-05-01 14:23:00,74.3,51.0,30.01,SW,236,4.0,6.0,44,0.00,,,0.00,WeatherCatV1.14B232,2013-05-01 21:23:00,
2013-05-01 14:28:00,73.7,50.4,30.01,SW,231,3.0,3.0,44,0.00,,,0.00,WeatherCatV1.14B232,2013-05-01 21:28:00,
2013-05-01 14:33:00,74.4,51.0,30.01,SSW,208,1.0,3.0,44,0.00,,,0.00,WeatherCatV1.14B232,2013-05-01 21:33:00,
2013-05-01 14:38:00,75.4,53.2,30.01,WSW,246,5.0,6.0,46,0.00,,,0.00,WeatherCatV1.14B232,2013-05-01 21:38:00,
2013-05-01 14:43:00,74.5,51.7,30.01,SW,228,2.0,6.0,45,0.00,,,0.00,WeatherCatV1.14B232,2013-05-01 21:43:00,
2013-05-01 14:48:00,74.9,51.5,30.01,SW,222,2.0,4.0,44,0.00,,,0.00,WeatherCatV1.14B232,2013-05-01 21:48:00,
2013-05-01 14:53:00,75.4,50.0,30.01,WSW,252,4.0,5.0,41,0.00,,,0.00,WeatherCatV1.14B232,2013-05-01 21:53:00,
2013-05-01 14:58:00,74.6,50.0,30.01,WSW,255,3.0,6.0,42,0.00,,,0.00,WeatherCatV1.14B232,2013-05-01 21:58:00,
2013-05-01 15:03:00,74.5,49.9,30.01,WSW,243,3.0,4.0,42,0.00,,,0.00,WeatherCatV1.14B232,2013-05-01 22:03:00,
2013-05-01 15:08:00,74.9,51.5,30.01,SW,226,2.0,5.0,44,0.00,,,0.00,WeatherCatV1.14B232,2013-05-01 22:08:00,
2013-05-01 15:13:00,75.1,51.7,30.01,SW,225,4.0,4.0,44,0.00,,,0.00,WeatherCatV1.14B232,2013-05-01 22:13:00,
2013-05-01 15:18:00,75.1,52.3,30.01,WSW,246,3.0,4.0,45,0.00,,,0.00,WeatherCatV1.14B232,2013-05-01 22:18:00,
2013-05-01 15:23:00,74.8,51.4,30.01,WSW,257,3.0,7.0,44,0.00,,,0.00,WeatherCatV1.14B232,2013-05-01 22:23:00,
2013-05-01 15:28:00,75.9,51.8,30.01,SW,214,1.0,3.0,43,0.00,,,0.00,WeatherCatV1.14B232,2013-05-01 22:28:00,
2013-05-01 15:33:00,76.9,50.7,30.01,WSW,248,4.0,4.0,40,0.00,,,0.00,WeatherCatV1.14B232,2013-05-01 22:33:00,
2013-05-01 15:38:00,76.9,50.7,30.01,SW,231,2.0,6.0,40,0.00,,,0.00,WeatherCatV1.14B232,2013-05-01 22:38:00,
2013-05-01 15:43:00,76.7,49.9,30.01,SW,229,3.0,4.0,39,0.00,,,0.00,WeatherCatV1.14B232,2013-05-01 22:43:00,
2013-05-01 15:48:00,76.5,48.3,30.01,SW,235,4.0,6.0,37,0.00,,,0.00,WeatherCatV1.14B232,2013-05-01 22:48:00,
2013-05-01 15:53:00,76.2,48.0,30.01,West,277,2.0,5.0,37,0.00,,,0.00,WeatherCatV1.14B232,2013-05-01 22:53:00,
2013-05-01 15:58:00,76.7,47.0,30.01,West,262,2.0,4.0,35,0.00,,,0.00,WeatherCatV1.14B232,2013-05-01 22:58:00,
2013-05-01 16:03:00,76.1,46.4,30.01,SW,236,1.0,7.0,35,0.00,,,0.00,WeatherCatV1.14B232,2013-05-01 23:03:00,
2013-05-01 16:08:00,75.9,48.5,30.01,SSW,205,2.0,4.0,38,0.00,,,0.00,WeatherCatV1.14B232,2013-05-01 23:08:00,
2013-05-01 16:13:00,76.0,46.4,30.01,WSW,256,2.0,4.0,35,0.00,,,0.00,WeatherCatV1.14B232,2013-05-01 23:13:00,
2013-05-01 16:18:00,76.0,48.5,30.01,WSW,256,3.0,5.0,38,0.00,,,0.00,WeatherCatV1.14B232,2013-05-01 23:18:00,
2013-05-01 16:23:00,76.6,48.4,30.01,SW,225,4.0,4.0,37,0.00,,,0.00,WeatherCatV1.14B232,2013-05-01 23:23:00,
2013-05-01 16:28:00,77.0,47.2,30.01,SW,231,4.0,5.0,35,0.00,,,0.00,WeatherCatV1.14B232,2013-05-01 23:28:00,
2013-05-01 16:33:00,76.5,46.8,30.01,West,259,3.0,6.0,35,0.00,,,0.00,WeatherCatV1.14B232,2013-05-01 23:33:00,
2013-05-01 16:38:00,76.2,46.5,30.01,WSW,242,4.0,6.0,35,0.00,,,0.00,WeatherCatV1.14B232,2013-05-01 23:38:00,
2013-05-01 16:43:00,76.1,46.4,30.00,WSW,242,2.0,5.0,35,0.00,,,0.00,WeatherCatV1.14B232,2013-05-01 23:43:00,
2013-05-01 16:48:00,75.9,47.0,30.00,West,267,3.0,6.0,36,0.00,,,0.00,WeatherCatV1.14B232,2013-05-01 23:48:00,
2013-05-01 16:53:00,76.5,47.5,30.00,WSW,243,2.0,3.0,36,0.00,,,0.00,WeatherCatV1.14B232,2013-05-01 23:53:00,
2013-05-01 16:58:00,77.4,47.6,30.00,SW,236,0.0,2.0,35,0.00,,,0.00,WeatherCatV1.14B232,2013-05-01 23:58:00,
2013-05-01 17:03:00,77.1,46.5,30.00,WSW,246,2.0,4.0,34,0.00,,,0.00,WeatherCatV1.14B232,2013-05-02 00:03:00,
2013-05-01 17:08:00,76.5,46.0,30.00,WSW,243,1.0,3.0,34,0.00,,,0.00,WeatherCatV1.14B232,2013-05-02 00:08:00,
2013-05-01 17:13:00,76.4,46.7,30.01,West,262,2.0,3.0,35,0.00,,,0.00,WeatherCatV1.14B232,2013-05-02 00:13:00,
2013-05-01 17:18:00,75.9,47.0,30.01,SSW,211,0.0,3.0,36,0.00,,,0.00,WeatherCatV1.14B232,2013-05-02 00:18:00,
2013-05-01 17:23:00,75.3,45.0,30.01,WSW,239,0.0,4.0,34,0.00,,,0.00,WeatherCatV1.14B232,2013-05-02 00:23:00,
2013-05-01 17:29:00,75.4,47.3,30.01,SW,226,0.0,2.0,37,0.00,,,0.00,WeatherCatV1.14B232,2013-05-02 00:29:00,
2013-05-01 17:34:00,75.0,44.7,30.01,West,259,3.0,5.0,34,0.00,,,0.00,WeatherCatV1.14B232,2013-05-02 00:34:00,
2013-05-01 17:39:00,74.6,45.1,30.01,WSW,250,2.0,5.0,35,0.00,,,0.00,WeatherCatV1.14B232,2013-05-02 00:39:00,
2013-05-01 17:44:00,74.8,44.5,30.01,SW,218,2.0,5.0,34,0.00,,,0.00,WeatherCatV1.14B232,2013-05-02 00:44:00,
2013-05-01 17:49:00,74.8,42.1,30.01,SW,228,3.0,6.0,31,0.00,,,0.00,WeatherCatV1.14B232,2013-05-02 00:49:00,
2013-05-01 17:54:00,74.9,43.8,30.01,WSW,246,3.0,4.0,33,0.00,,,0.00,WeatherCatV1.14B232,2013-05-02 00:54:00,
2013-05-01 17:59:00,74.9,45.4,30.01,WSW,253,2.0,5.0,35,0.00,,,0.00,WeatherCatV1.14B232,2013-05-02 00:59:00,
2013-05-01 18:04:00,74.4,45.7,30.01,SW,217,1.0,3.0,36,0.00,,,0.00,WeatherCatV1.14B232,2013-05-02 01:04:00,
2013-05-01 18:09:00,74.3,44.9,30.01,West,263,4.0,6.0,35,0.00,,,0.00,WeatherCatV1.14B232,2013-05-02 01:09:00,
2013-05-01 18:14:00,73.9,44.5,30.01,WSW,256,3.0,7.0,35,0.00,,,0.00,WeatherCatV1.14B232,2013-05-02 01:14:00,
2013-05-01 18:19:00,73.3,46.1,30.01,WSW,248,6.0,7.0,38,0.00,,,0.00,WeatherCatV1.14B232,2013-05-02 01:19:00,
2013-05-01 18:24:00,72.4,47.4,30.01,West,262,3.0,6.0,41,0.00,,,0.00,WeatherCatV1.14B232,2013-05-02 01:24:00,
2013-05-01 18:29:00,72.0,47.6,30.01,SW,227,3.0,4.0,42,0.00,,,0.00,WeatherCatV1.14B232,2013-05-02 01:29:00,
2013-05-01 18:34:00,70.3,46.7,30.01,West,262,4.0,7.0,43,0.00,,,0.00,WeatherCatV1.14B232,2013-05-02 01:34:00,
2013-05-01 18:39:00,68.9,47.3,30.01,WSW,249,2.0,5.0,46,0.00,,,0.00,WeatherCatV1.14B232,2013-05-02 01:39:00,
2013-05-01 18:44:00,67.7,46.7,30.01,West,264,5.0,7.0,47,0.00,,,0.00,WeatherCatV1.14B232,2013-05-02 01:44:00,
2013-05-01 18:49:00,66.7,45.8,30.01,West,263,6.0,9.0,47,0.00,,,0.00,WeatherCatV1.14B232,2013-05-02 01:49:00,
2013-05-01 18:54:00,65.8,46.1,30.01,WSW,257,3.0,6.0,49,0.00,,,0.00,WeatherCatV1.14B232,2013-05-02 01:54:00,
2013-05-01 18:59:00,65.1,46.0,30.01,SW,221,4.0,6.0,50,0.00,,,0.00,WeatherCatV1.14B232,2013-05-02 01:59:00,
2013-05-01 19:04:00,64.6,46.1,30.02,SW,222,4.0,5.0,51,0.00,,,0.00,WeatherCatV1.14B232,2013-05-02 02:04:00,
2013-05-01 19:09:00,64.0,46.5,30.02,SW,222,3.0,7.0,53,0.00,,,0.00,WeatherCatV1.14B232,2013-05-02 02:09:00,
2013-05-01 19:14:00,63.5,46.6,30.02,SW,232,5.0,5.0,54,0.00,,,0.00,WeatherCatV1.14B232,2013-05-02 02:14:00,
2013-05-01 19:19:00,63.1,47.1,30.02,West,263,5.0,5.0,56,0.00,,,0.00,WeatherCatV1.14B232,2013-05-02 02:19:00,
2013-05-01 19:24:00,62.8,47.3,30.02,WSW,249,2.0,5.0,57,0.00,,,0.00,WeatherCatV1.14B232,2013-05-02 02:24:00,
2013-05-01 19:29:00,62.2,47.2,30.02,SW,225,2.0,5.0,58,0.00,,,0.00,WeatherCatV1.14B232,2013-05-02 02:29:00,
2013-05-01 19:34:00,61.7,47.2,30.03,WSW,256,1.0,3.0,59,0.00,,,0.00,WeatherCatV1.14B232,2013-05-02 02:34:00,
2013-05-01 19:39:00,61.4,46.9,30.03,WSW,246,2.0,2.0,59,0.00,,,0.00,WeatherCatV1.14B232,2013-05-02 02:39:00,
2013-05-01 19:44:00,61.2,47.2,30.03,WSW,241,2.0,3.0,60,0.00,,,0.00,WeatherCatV1.14B232,2013-05-02 02:44:00,
2013-05-01 19:49:00,61.1,47.5,30.03,WSW,237,3.0,3.0,61,0.00,,,0.00,WeatherCatV1.14B232,2013-05-02 02:49:00,
2013-05-01 19:54:00,61.1,47.1,30.03,WSW,248,0.0,2.0,60,0.00,,,0.00,WeatherCatV1.14B232,2013-05-02 02:54:00,
2013-05-01 19:59:00,60.9,46.9,30.03,SW,222,2.0,3.0,60,0.00,,,0.00,WeatherCatV1.14B232,2013-05-02 02:59:00,
2013-05-01 20:04:00,60.6,46.2,30.03,SW,228,0.0,1.0,59,0.00,,,0.00,WeatherCatV1.14B232,2013-05-02 03:04:00,
2013-05-01 20:09:00,60.5,46.1,30.04,SSW,205,0.0,0.0,59,0.00,,,0.00,WeatherCatV1.14B232,2013-05-02 03:09:00,
2013-05-01 20:14:00,60.5,45.6,30.04,WSW,240,1.0,2.0,58,0.00,,,0.00,WeatherCatV1.14B232,2013-05-02 03:14:00,
2013-05-01 20:19:00,60.5,45.6,30.04,NE,41,0.0,1.0,58,0.00,,,0.00,WeatherCatV1.14B232,2013-05-02 03:19:00,
2013-05-01 20:24:00,60.6,45.3,30.04,SW,225,0.0,0.0,57,0.00,,,0.00,WeatherCatV1.14B232,2013-05-02 03:24:00,
2013-05-01 20:29:00,60.9,45.6,30.04,SW,226,0.0,0.0,57,0.00,,,0.00,WeatherCatV1.14B232,2013-05-02 03:29:00,
2013-05-01 20:34:00,60.7,46.3,30.05,SW,221,1.0,5.0,59,0.00,,,0.00,WeatherCatV1.14B232,2013-05-02 03:34:00,
2013-05-01 20:39:00,60.4,46.0,30.05,WSW,242,1.0,2.0,59,0.00,,,0.00,WeatherCatV1.14B232,2013-05-02 03:39:00,
2013-05-01 20:44:00,60.3,45.5,30.05,SW,228,0.0,0.0,58,0.00,,,0.00,WeatherCatV1.14B232,2013-05-02 03:44:00,
2013-05-01 20:49:00,60.4,43.7,30.04,SW,228,0.0,0.0,54,0.00,,,0.00,WeatherCatV1.14B232,2013-05-02 03:49:00,
2013-05-01 20:54:00,60.9,45.6,30.05,SW,228,0.0,0.0,57,0.00,,,0.00,WeatherCatV1.14B232,2013-05-02 03:54:00,
2013-05-01 20:59:00,60.9,45.1,30.05,SW,228,0.0,0.0,56,0.00,,,0.00,WeatherCatV1.14B232,2013-05-02 03:59:00,
2013-05-01 21:01:00,60.9,46.0,30.05,SW,228,0.0,0.0,58,0.00,,,0.00,WeatherCatV1.14B232,2013-05-02 04:01:00,
2013-05-01 21:06:00,60.3,45.9,30.05,WSW,245,0.0,0.0,59,0.00,,,0.00,WeatherCatV1.14B232,2013-05-02 04:06:00,
2013-05-01 21:11:00,59.7,45.3,30.05,NW,319,0.0,0.0,59,0.00,,,0.00,WeatherCatV1.14B232,2013-05-02 04:11:00,
2013-05-01 21:13:00,59.7,43.5,30.06,NNE,27,0.0,0.0,55,0.00,,,0.00,WeatherCatV1.14B232,2013-05-02 04:13:00,
2013-05-01 21:18:00,59.9,45.5,30.06,WSW,242,0.0,0.0,59,0.00,,,0.00,WeatherCatV1.14B232,2013-05-02 04:18:00,
2013-05-01 21:23:00,59.7,45.3,30.06,WSW,242,0.0,0.0,59,0.00,,,0.00,WeatherCatV1.14B232,2013-05-02 04:23:00,
2013-05-01 21:28:00,59.9,44.2,30.06,WSW,242,0.0,0.0,56,0.00,,,0.00,WeatherCatV1.14B232,2013-05-02 04:28:00,
2013-05-01 21:33:00,60.3,45.0,30.06,WSW,243,0.0,0.0,57,0.00,,,0.00,WeatherCatV1.14B232,2013-05-02 04:33:00,
2013-05-01 21:38:00,60.3,44.5,30.06,SW,224,0.0,0.0,56,0.00,,,0.00,WeatherCatV1.14B232,2013-05-02 04:38:00,
2013-05-01 21:43:00,60.4,44.6,30.06,WSW,246,0.0,0.0,56,0.00,,,0.00,WeatherCatV1.14B232,2013-05-02 04:43:00,
2013-05-01 21:48:00,60.3,44.5,30.06,WSW,257,0.0,0.0,56,0.00,,,0.00,WeatherCatV1.14B232,2013-05-02 04:48:00,
2013-05-01 21:53:00,60.2,44.9,30.07,WSW,248,0.0,0.0,57,0.00,,,0.00,WeatherCatV1.14B232,2013-05-02 04:53:00,
2013-05-01 21:58:00,60.1,44.8,30.07,WSW,250,0.0,0.0,57,0.00,,,0.00,WeatherCatV1.14B232,2013-05-02 04:58:00,
2013-05-01 22:03:00,60.2,44.0,30.07,WSW,250,0.0,0.0,55,0.00,,,0.00,WeatherCatV1.14B232,2013-05-02 05:03:00,
2013-05-01 22:08:00,60.4,45.1,30.07,WSW,249,0.0,0.0,57,0.00,,,0.00,WeatherCatV1.14B232,2013-05-02 05:08:00,
2013-05-01 22:13:00,60.5,44.7,30.07,WSW,250,0.0,0.0,56,0.00,,,0.00,WeatherCatV1.14B232,2013-05-02 05:13:00,
2013-05-01 22:18:00,61.4,39.3,30.07,NNE,27,0.0,0.0,44,0.00,,,0.00,WeatherCatV1.14B232,2013-05-02 05:18:00,
2013-05-01 22:23:00,62.7,38.0,30.07,NNE,27,0.0,0.0,40,0.00,,,0.00,WeatherCatV1.14B232,2013-05-02 05:23:00,
2013-05-01 22:28:00,64.1,34.4,30.07,NE,36,0.0,0.0,33,0.00,,,0.00,WeatherCatV1.14B232,2013-05-02 05:28:00,
2013-05-01 22:33:00,65.5,37.1,30.07,NE,42,0.0,0.0,35,0.00,,,0.00,WeatherCatV1.14B232,2013-05-02 05:33:00,
2013-05-01 22:38:00,66.1,37.6,30.07,NE,41,0.0,0.0,35,0.00,,,0.00,WeatherCatV1.14B232,2013-05-02 05:38:00,
2013-05-01 22:43:00,67.0,35.4,30.07,NE,41,0.0,0.0,31,0.00,,,0.00,WeatherCatV1.14B232,2013-05-02 05:43:00,
2013-05-01 22:48:00,67.3,35.6,30.07,NE,41,0.0,0.0,31,0.00,,,0.00,WeatherCatV1.14B232,2013-05-02 05:48:00,
2013-05-01 22:53:00,67.0,36.9,30.07,WSW,250,0.0,2.0,33,0.00,,,0.00,WeatherCatV1.14B232,2013-05-02 05:53:00,
2013-05-01 22:58:00,66.8,35.2,30.07,NE,37,2.0,2.0,31,0.00,,,0.00,WeatherCatV1.14B232,2013-05-02 05:58:00,
2013-05-01 23:03:00,66.9,36.1,30.06,NE,37,0.0,1.0,32,0.00,,,0.00,WeatherCatV1.14B232,2013-05-02 06:03:00,
2013-05-01 23:08:00,66.1,42.9,30.07,West,262,0.0,0.0,43,0.00,,,0.00,WeatherCatV1.14B232,2013-05-02 06:08:00,
2013-05-01 23:13:00,65.2,34.6,30.07,NNE,29,0.0,0.0,32,0.00,,,0.00,WeatherCatV1.14B232,2013-05-02 06:13:00,
2013-05-01 23:18:00,66.4,31.4,30.07,NE,39,1.0,2.0,27,0.00,,,0.00,WeatherCatV1.14B232,2013-05-02 06:18:00,
2013-05-01 23:23:00,67.8,28.6,30.07,NE,43,1.0,2.0,23,0.00,,,0.00,WeatherCatV1.14B232,2013-05-02 06:23:00,
2013-05-01 23:28:00,68.6,41.3,30.07,NE,42,0.0,0.0,37,0.00,,,0.00,WeatherCatV1.14B232,2013-05-02 06:28:00,
2013-05-01 23:33:00,67.0,41.2,30.07,NE,43,0.0,0.0,39,0.00,,,0.00,WeatherCatV1.14B232,2013-05-02 06:33:00,
2013-05-01 23:36:00,67.0,31.9,30.07,NE,42,2.0,2.0,27,0.00,,,0.00,WeatherCatV1.14B232,2013-05-02 06:36:00,
2013-05-01 23:41:00,67.5,29.4,30.07,NE,39,0.0,1.0,24,0.00,,,0.00,WeatherCatV1.14B232,2013-05-02 06:41:00,
2013-05-01 23:46:00,67.7,37.6,30.07,NE,48,0.0,0.0,33,0.00,,,0.00,WeatherCatV1.14B232,2013-05-02 06:46:00,
2013-05-01 23:47:00,67.6,37.5,30.07,NE,48,0.0,0.0,33,0.00,,,0.00,WeatherCatV1.14B232,2013-05-02 06:47:00,
2013-05-01 23:52:00,66.6,38.8,30.07,NE,50,0.0,0.0,36,0.00,,,0.00,WeatherCatV1.14B232,2013-05-02 06:52:00,
2013-05-01 23:57:00,66.1,33.8,30.07,NE,42,2.0,2.0,30,0.00,,,0.00,WeatherCatV1.14B232,2013-05-02 06:57:00,